SCP
0 0 0 0 0 0 0 0 0 0 0 0 0 0 0 0 1 1 1 1 1 1 1 2 2 2 2 1 1 1 1 0 0 0 0 0 0 0 0 0 0 0 0 0
0 0 0 0 0 0 0 0 0 0 0 0 0 0 0 0 1 1 1 1 1 1 1 2 2 2 2 1 1 1 0 0 0 0 0 0 0 0 0 0 0 0 0 0
0 0 0 0 0 0 0 0 0 0 0 0 0 0 1 1 0 1 1 1 0 0 1 1 2 2 2 2 1 1 0 0 0 0 0 0 0 0 0 0 0 0 0 0
0 0 0 0 0 0 0 0 0 0 0 0 0 0 0 1 0 1 1 1 1 1 1 1 2 2 2 2 1 1 1 0 0 0 0 1 1 1 1 1 1 0 0 1
1 1 0 0 0 0 0 0 0 0 0 0 0 0 0 0 0 1 1 1 1 1 1 1 1 2 2 1 1 1 1 1 1 1 0 1 1 1 1 1 1 1 1 1
1 1 0 0 0 0 0 0 0 0 0 0 0 0 0 0 0 1 1 1 1 1 1 1 1 1 1 1 1 1 1 1 1 1 1 1 1 1 1 1 1 1 1 1
1 1 0 0 0 0 0 0 0 0 0 0 0 0 0 0 1 1 1 1 1 1 1 1 1 1 1 1 1 1 1 1 1 1 1 1 1 1 1 1 1 1 1 1
1 1 1 0 0 0 0 0 0 0 0 0 1 1 0 0 0 1 1 1 1 1 0 0 1 1 1 1 1 1 1 2 1 1 1 1 1 1 1 1 1 1 1 1
1 1 1 0 0 0 0 0 0 0 0 0 1 1 0 0 0 0 1 1 1 0 0 0 1 1 1 1 1 2 2 2 2 1 1 1 1 1 1 1 1 1 0 0
1 1 1 0 0 0 0 0 0 0 0 0 0 1 1 0 0 0 1 1 1 1 0 1 1 1 1 1 2 2 2 2 2 1 2 2 2 1 1 1 1 1 1 0
0 0 0 0 0 0 0 0 0 0 0 0 0 1 1 0 0 0 1 1 1 1 0 1 1 1 1 1 2 2 2 2 1 2 2 2 2 2 1 1 1 1 0 0
0 0 0 0 0 0 0 0 0 0 0 0 0 1 1 1 0 1 1 1 1 0 0 1 1 1 1 1 1 1 1 1 1 2 2 2 2 1 1 0 0 0 0 0
0 0 0 0 0 0 0 0 0 0 0 0 1 1 1 1 1 1 1 1 1 1 1 1 1 1 1 1 1 1 1 1 1 1 1 1 1 1 0 0 0 0 0 0
0 0 0 0 0 0 0 0 0 0 0 0 1 1 1 1 1 1 1 1 1 1 1 1 1 1 1 1 1 1 1 1 1 1 1 1 0 0 0 0 0 0 0 0
0 0 0 0 0 0 0 0 0 0 0 0 0 1 1 1 1 1 1 1 1 1 1 1 1 1 1 1 1 1 1 1 1 1 1 0 0 0 0 0 0 0 0 0
0 0 0 0 0 0 0 0 0 0 0 0 0 1 1 1 1 1 1 1 1 1 1 1 1 1 1 1 1 1 1 1 1 1 1 0 0 0 1 1 0 0 0 0
0 0 0 0 0 0 0 0 0 0 0 0 1 1 1 1 1 1 1 1 1 1 1 1 1 1 1 1 1 1 1 1 1 1 1 1 1 1 1 1 0 0 0 0
0 0 0 0 0 0 0 0 0 1 1 0 1 1 1 1 1 1 1 1 1 1 1 1 1 1 1 1 1 1 1 1 1 1 1 1 1 1 1 1 0 0 0 0
0 0 0 0 0 0 1 1 1 1 1 1 1 1 1 1 1 1 1 1 1 1 1 1 1 1 0 0 0 0 0 0 0 0 0 1 1 1 1 1 0 0 0 0
0 0 0 0 0 0 1 1 1 1 1 1 1 1 1 1 1 1 1 1 1 1 1 1 0 0 0 0 0 0 0 0 0 0 1 1 1 1 1 1 1 0 0 0
0 0 0 0 0 1 1 1 1 1 1 1 1 1 1 1 1 1 1 1 1 1 0 0 0 0 0 0 0 0 0 0 1 1 1 1 1 1 1 1 1 1 1 0
0 0 0 0 0 1 1 1 1 1 2 2 2 1 1 1 1 1 1 1 1 0 0 0 0 0 0 0 0 0 0 1 1 1 1 1 1 1 1 1 1 1 1 1
0 0 0 1 1 1 1 1 1 1 2 2 2 2 2 2 2 2 1 1 1 0 0 0 0 0 0 0 0 0 0 0 0 0 0 0 0 0 0 0 0 0 0 0
0 0 1 1 1 1 1 1 1 1 1 1 1 2 2 2 2 2 1 1 0 0 0 0 0 0 0 0 0 0 0 0 0 0 0 0 0 0 0 0 0 0 0 0
0 0 1 1 1 1 1 1 1 1 1 1 1 2 2 2 2 1 1 0 0 0 0 0 0 0 0 0 0 0 0 0 0 0 0 0 0 0 0 0 0 0 0 0
0 0 1 1 1 1 1 1 1 1 1 1 1 2 1 1 1 1 1 0 0 0 0 0 0 0 0 0 0 0 0 0 0 0 0 0 0 0 0 0 0 0 0 0
0 1 1 1 1 1 1 1 1 1 1 1 1 2 1 1 1 1 1 1 0 0 0 0 0 0 0 0 0 0 0 0 0 0 0 0 0 0 0 0 0 0 0 0
Wind_Speed
10 8 8 10 10 11 12 11 9 8 6 3 4 4 5 5 5 5 6 6 6 6 7 7 7 7 8 8 8 8 7 6 5 6 5 4 5 4 3 3 3 2 3 3
12 10 10 12 12 12 13 12 12 10 7 2 2 4 4 5 6 5 5 6 6 7 7 8 8 7 7 8 8 8 7 7 6 6 5 5 5 5 4 3 3 3 3 3
11 10 10 13 12 11 11 11 10 10 6 2 2 2 2 3 5 5 5 5 6 6 7 8 9 8 8 9 8 8 8 7 7 6 6 5 5 5 5 4 3 3 3 4
8 9 12 7 6 8 8 8 8 7 4 3 1 2 2 3 3 4 4 5 5 5 5 6 8 8 7 8 9 8 8 8 8 7 7 6 5 5 5 4 4 3 3 4
7 10 10 8 7 7 7 7 6 5 4 3 3 3 2 3 3 3 4 5 4 5 5 6 7 9 8 9 9 8 8 8 8 8 7 7 6 6 5 5 4 4 4 4
7 9 9 6 4 3 5 6 3 3 3 3 4 3 2 3 3 3 3 4 4 3 4 5 6 7 8 8 9 8 8 8 8 8 8 7 7 6 4 5 5 4 4 4
10 10 7 4 3 4 6 2 2 3 2 2 2 2 2 4 4 3 3 4 4 3 3 4 5 7 7 7 8 8 7 7 7 8 8 7 6 5 5 5 5 4 5 3
10 10 8 4 4 4 1 1 1 1 1 1 1 2 3 4 4 4 3 3 4 4 3 3 5 6 7 6 6 8 8 7 7 7 7 7 6 5 5 5 5 4 4 3
6 5 2 2 2 1 1 0 1 1 1 0 1 3 3 4 4 3 3 3 3 4 3 3 4 5 7 6 6 8 8 7 7 7 6 6 6 6 5 5 4 4 4 3
7 6 5 3 2 1 0 0 0 1 0 0 1 3 3 3 4 3 3 3 3 4 4 4 4 4 5 6 7 8 8 7 7 7 6 6 5 4 4 4 4 4 4 4
9 6 4 4 4 3 2 0 0 0 0 1 2 3 2 2 3 4 3 3 3 3 4 4 4 5 5 6 7 7 7 7 6 6 6 5 4 3 4 3 4 4 3 4
6 4 4 2 2 2 2 1 1 1 0 1 1 2 2 2 3 4 4 3 3 3 4 4 5 5 5 6 7 7 6 6 5 5 5 5 6 5 6 5 7 7 6 5
5 4 4 4 4 3 3 3 2 2 2 1 2 2 2 2 3 4 4 4 4 4 3 4 5 5 5 6 6 6 6 5 5 5 6 6 6 6 5 5 7 7 6 7
4 4 5 4 3 2 3 3 3 3 3 2 1 2 3 3 3 4 4 4 4 4 4 4 5 5 5 5 6 6 5 6 5 4 5 5 5 5 5 6 4 2 3 5
6 6 5 5 4 3 2 3 3 3 2 2 1 2 3 3 3 3 4 4 5 5 5 5 5 4 5 5 6 6 5 4 5 4 4 4 5 5 5 5 5 4 3 3
7 6 6 6 5 4 4 3 3 2 2 2 2 2 3 3 3 3 4 4 5 5 5 5 5 4 5 5 5 5 4 7 6 5 4 4 4 5 5 5 5 4 4 4
7 7 6 6 4 4 4 3 3 2 2 2 2 2 4 4 4 4 4 4 4 4 4 5 5 5 5 5 5 4 5 6 7 5 4 4 4 5 5 5 5 4 4 5
9 7 6 4 4 4 3 3 2 2 2 2 3 3 4 5 5 5 4 4 4 4 4 5 5 5 5 5 5 5 5 4 4 4 3 3 3 4 4 5 5 5 4 5
6 6 5 4 4 3 3 3 2 2 2 3 3 3 3 4 4 5 5 5 5 4 4 5 7 6 6 6 5 4 5 5 4 4 4 5 4 3 4 4 4 5 5 5
4 3 3 3 3 3 3 2 2 2 2 3 4 4 3 3 5 5 4 4 3 3 4 5 6 5 5 5 5 4 5 5 5 4 4 4 4 4 4 4 4 4 4 4
3 3 3 3 2 2 2 2 3 2 3 3 4 4 4 4 4 4 4 4 3 4 4 6 4 4 4 5 5 4 5 5 4 4 4 4 4 4 4 4 4 5 4 4
2 3 3 3 3 2 2 2 3 3 3 3 4 4 4 4 4 4 3 3 3 5 4 3 3 5 6 5 3 4 4 5 4 4 4 4 4 4 4 4 4 4 4 4
2 2 2 3 2 2 1 2 2 2 3 4 4 4 4 4 4 4 3 3 4 5 4 4 6 8 8 4 4 4 4 5 4 4 4 4 4 4 4 5 4 4 4 4
1 1 2 2 2 2 2 2 2 1 2 3 3 4 4 4 3 3 4 6 6 5 4 6 10 9 7 3 4 4 4 4 4 4 4 4 4 4 4 5 5 5 5 6
2 2 2 2 2 2 2 2 2 2 2 3 3 3 3 3 4 4 4 5 7 6 4 7 9 8 5 4 4 4 4 4 5 5 5 4 4 4 4 4 5 5 5 5
2 1 1 1 1 1 2 2 2 2 2 3 3 3 4 4 5 5 4 5 6 6 4 4 5 5 4 4 4 4 4 5 5 4 5 5 5 5 5 5 6 5 5 5
2 2 2 2 2 2 2 2 2 2 2 3 3 3 4 4 4 4 5 5 5 4 4 4 4 4 4 4 4 4 4 4 4 4 4 4 5 5 6 6 5 5 5 6
Wind_Direction
254 251 247 239 234 233 240 244 253 260 259 232 174 164 155 158 157 157 165 162 160 164 165 164 166 170 165 164 159 162 163 171 168 163 160 151 143 142 140 127 122 109 100 98
256 250 251 252 242 234 235 242 252 260 263 264 189 161 160 164 160 169 178 173 166 170 172 173 172 174 165 162 163 162 167 173 166 164 152 148 146 139 132 123 118 108 105 103
256 252 251 248 234 230 231 234 244 253 258 239 222 181 166 156 164 177 180 171 169 178 180 179 176 178 173 166 165 168 172 170 165 160 149 153 149 136 132 126 110 103 100 99
254 252 245 239 227 224 231 232 232 242 248 228 191 146 147 146 159 172 173 170 174 179 183 178 175 174 172 167 171 175 175 169 161 157 153 152 146 141 142 133 128 125 120 115
243 245 249 245 228 215 227 234 223 230 229 214 167 171 157 141 156 178 173 169 174 178 182 180 173 170 171 172 172 174 174 167 161 157 153 153 153 153 151 143 140 140 134 129
239 242 240 234 209 210 239 234 210 227 226 205 184 192 191 169 160 163 156 154 163 171 183 179 172 165 170 173 172 173 171 164 158 156 154 157 160 157 148 144 147 139 135 141
232 241 248 241 210 204 221 220 187 213 220 208 210 169 156 154 138 132 137 145 152 169 184 178 165 162 167 167 168 160 152 150 152 154 155 156 155 150 143 140 141 143 143 141
220 230 233 209 203 209 147 91 151 169 191 178 191 137 113 115 121 123 127 140 153 165 171 165 158 160 163 164 157 144 141 146 149 150 154 154 149 150 147 147 150 153 147 145
216 222 220 183 195 154 92 22 39 54 52 185 169 110 106 116 120 129 137 141 147 155 159 156 157 161 158 152 141 138 140 145 147 146 145 147 150 153 153 154 157 163 155 157
231 225 218 205 184 167 327 267 19 20 107 145 142 127 124 131 135 139 140 139 140 144 147 146 146 146 144 139 139 142 147 148 147 151 149 148 148 154 156 163 170 171 163 163
246 244 230 199 199 198 199 247 68 75 228 137 119 135 138 145 144 145 141 137 136 145 151 154 149 142 142 142 143 145 146 151 154 152 148 145 137 135 155 153 165 164 163 158
241 243 241 227 198 202 206 245 276 285 234 160 153 153 151 159 148 148 147 143 138 143 153 158 151 143 139 143 144 146 149 156 155 150 147 144 135 110 71 88 101 107 109 119
265 279 268 272 243 206 223 237 239 245 251 215 176 159 163 157 154 151 151 150 150 153 155 147 140 138 140 144 145 150 155 156 152 152 151 151 148 144 131 80 78 85 97 110
269 275 257 258 257 232 228 242 243 237 230 203 166 158 157 149 151 155 156 150 146 145 147 143 140 142 144 144 147 153 151 150 145 150 154 154 154 154 151 146 134 105 86 113
250 256 256 268 268 251 238 232 235 236 206 172 156 162 157 152 157 153 145 141 140 143 143 138 136 141 145 145 149 149 145 144 145 143 143 145 145 146 147 147 144 140 128 116
243 238 233 243 242 234 222 220 223 233 212 171 158 157 148 145 141 136 135 140 145 147 145 142 141 145 146 145 143 140 136 138 137 136 139 144 147 150 154 155 156 152 150 149
244 235 230 222 224 234 218 212 218 220 209 173 160 144 135 132 132 134 133 135 135 136 140 140 141 140 140 139 135 131 130 137 137 137 144 150 155 158 159 155 154 152 153 155
238 239 237 222 212 223 215 199 201 208 188 165 154 145 145 152 155 145 136 131 128 125 129 134 137 141 142 138 133 133 137 143 147 146 144 146 149 150 149 148 147 148 142 140
233 235 224 216 219 215 201 182 180 182 163 155 152 148 153 153 143 138 137 136 135 133 136 131 137 143 139 139 138 139 140 141 141 140 137 138 136 131 133 138 143 146 144 139
222 228 210 206 205 192 184 173 166 160 160 153 142 139 142 137 134 139 138 132 127 129 132 130 137 136 135 139 136 136 138 143 146 142 138 139 138 138 139 142 142 140 137 136
202 192 182 183 174 165 171 170 159 159 159 147 145 149 147 141 136 134 130 119 105 105 120 129 133 129 130 134 135 135 137 139 140 140 140 140 140 140 140 137 136 136 134 131
172 162 166 164 160 166 168 170 163 162 152 140 139 140 137 136 131 122 112 118 124 119 122 128 124 125 128 129 133 128 130 134 134 133 135 136 138 140 137 134 130 127 125 126
134 137 143 154 164 166 160 149 148 154 151 149 149 149 146 140 138 139 138 125 122 122 119 119 119 120 121 124 129 128 127 127 126 126 127 129 131 131 130 127 123 120 119 120
122 121 139 162 168 160 152 138 129 127 127 128 134 138 135 127 121 116 117 123 122 122 115 127 128 128 125 126 129 130 130 128 126 125 124 122 122 123 124 124 124 123 122 121
131 134 142 144 143 138 132 127 119 118 115 116 117 118 123 122 124 118 119 125 127 124 120 132 134 135 134 131 131 128 124 125 128 128 128 129 129 127 125 124 125 125 124 122
87 101 105 111 112 117 128 128 127 126 123 114 107 103 102 103 110 115 120 126 128 131 130 131 135 135 129 124 123 121 121 124 122 122 126 127 128 129 127 125 124 125 125 124
83 95 104 104 97 97 104 113 122 125 125 123 118 112 111 112 115 120 122 124 128 128 123 125 129 132 126 122 120 121 121 120 121 122 124 126 127 127 128 128 127 125 124 125